sat.trackr.live / text

‹ back to catalog

STARLINK-32698

NORAD 62312 · 2024-239M

PAYLOAD ACTIVE UNKNOWN

§ Identity

Operator
Country
US
Launch date
2024-12-13
Launch site
AFWTR
Launch vehicle
Mass (kg)
RCS (m²)

Purposes: comms

External: N2YO · Heavens-Above · Gunter

§ Orbital elements

Epoch: 2026-05-24T20:18:32.889600Z

Period
93.85 min
Inclination
53.1600°
Eccentricity
0.0000774
Mean motion
15.34423448 rev/d
Perigee alt
462.1 km
Apogee alt
463.2 km
Semi-major
6,840.8 km
B*
7.8709e-4
RAAN
200.1912°
Arg perigee
97.7064°
Mean anomaly
262.4027°
Rev number
8,104

§ Raw data

STARLINK-326981 62312U 24239M   26144.84621400  .00026330  00000+0  78709-3 0  99932 62312  53.1600 200.1912 0000774  97.7064 262.4027 15.34423448 81041

JSON: /api/v1/satellites/62312 · /tle

For live sub-satellite position, see the globe view (requires WebGL).

§ Visibility from observer

Set your observer location to see the next 7 days of passes ≥ 10°. The values pass through the URL so the page stays shareable.

No JS? Fill the form by hand. The geolocation button needs JavaScript.